Change the Weather History Date:

Thursday, December 13, 2012

  Actual Average Record
Temperature  
Mean Temperature 64 °F -  
Max Temperature 75 °F 74 °F 82 °F (2005)
Min Temperature 53 °F 38 °F 32 °F (1997)
Degree Days  
Heating Degree Days 1    
Growing Degree Days 14 (Base 50)    
Moisture  
Dew Point 45 °F    
Average Humidity 55    
Maximum Humidity 77    
Minimum Humidity 28    
Precipitation  
Precipitation 0.00 in - - ()
Sea Level Pressure  
Sea Level Pressure 30.14 in    
Wind  
Wind Speed 2 mph ()    
Max Wind Speed 8 mph    
Max Gust Speed -    
Visibility 8.7 miles    
Events      
Averages and records for this station are not official NWS values.
T = Trace of Precipitation, MM = Missing Value Source: Averaged Metar Reports

Daily Weather History Graph

Daily Weather History Graph

Search for Another Location

Airport or City:

Trip Planner

Search our weather history database for the weather conditions in past years. The results will help you decide how hot, cold, wet, or windy it might be!

Date:

Astronomy

Dec. 13, 2012 Rise Set
Actual Time 7:20 AM CST 6:14 PM CST
Civil Twilight 6:56 AM CST 6:38 PM CST
Nautical Twilight 6:29 AM CST 7:06 PM CST
Astronomical Twilight 6:01 AM CST 7:33 PM CST
Moon 7:33 AM CST (12/13) 6:56 PM CST (12/13)
Length of Visible Light 11h 42m
Length of Day
10h 54m
New Moon, 0% of the Moon is Illuminated
Dec 13
New Moon
Dec 19
First Quarter
Dec 28
Full
Jan 4
Last Quarter
Jan 11
New

Hourly Weather History & Observations

Time (CST) Temp. Dew Point Humidity Pressure Visibility Wind Dir Wind Speed Gust Speed Precip Events Conditions
12:55 AM 57.2 °F 44.6 °F 63% 30.22 in 10.0 mi Calm Calm - N/A   Mostly Cloudy
1:49 AM 55.4 °F 44.6 °F 67% 30.22 in 10.0 mi Calm Calm - N/A   Mostly Cloudy
2:54 AM 57.2 °F 46.4 °F 67% 29.92 in 10.0 mi SE 3.5 mph - N/A   Mostly Cloudy
3:55 AM 55.4 °F 46.4 °F 72% 30.22 in 10.0 mi Calm Calm - N/A   Mostly Cloudy
4:49 AM 53.6 °F 46.4 °F 77% 30.21 in 10.0 mi Calm Calm - N/A   Mostly Cloudy
6:00 AM 57.2 °F 46.4 °F 67% 29.96 in 10.0 mi Calm Calm - N/A   Mostly Cloudy
6:56 AM 55.4 °F 48.2 °F 77% 30.24 in 10.0 mi Calm Calm - N/A   Scattered Clouds
7:48 AM 53.6 °F 46.4 °F 77% 30.26 in 6.0 mi SW 4.6 mph - N/A   Mostly Cloudy
8:52 AM 57.2 °F 48.2 °F 72% 30.08 in 4.0 mi WNW 3.5 mph - N/A   Mostly Cloudy
9:52 AM 60.8 °F 48.2 °F 63% 30.30 in 4.0 mi NW 4.6 mph - N/A   Overcast
10:52 AM 66.2 °F 50.0 °F 56% 30.31 in 6.0 mi ESE 3.5 mph - N/A   Overcast
11:49 AM 66.2 °F 50.0 °F 56% 30.05 in 6.0 mi ESE 4.6 mph - N/A   Overcast
12:50 PM 71.6 °F 50.0 °F 46% 30.26 in 7.0 mi SSE 6.9 mph - N/A   Overcast
1:49 PM 73.4 °F 46.4 °F 38% 30.22 in 8.0 mi SSE 6.9 mph - N/A   Mostly Cloudy
2:51 PM 75.2 °F 42.8 °F 31% 29.81 in 10.0 mi NNE 6.9 mph - N/A   Mostly Cloudy
3:50 PM 75.2 °F 42.8 °F 31% 30.17 in 10.0 mi SSE 8.1 mph - N/A   Mostly Cloudy
5:46 PM 73.4 °F 42.8 °F 33% 29.89 in 10.0 mi South 4.6 mph - N/A   Mostly Cloudy
6:50 PM 68.0 °F 41.0 °F 37% 30.18 in 10.0 mi Calm Calm - N/A   Mostly Cloudy
7:47 PM 66.2 °F 32.0 °F 28% 30.19 in 10.0 mi SSE 4.6 mph - N/A   Mostly Cloudy
8:49 PM 66.2 °F 42.8 °F 43% 29.98 in 10.0 mi Calm Calm - N/A   Mostly Cloudy
9:49 PM 64.4 °F 44.6 °F 49% 30.23 in 10.0 mi Calm Calm - N/A   Mostly Cloudy
10:47 PM 57.2 °F 42.8 °F 59% 30.24 in 10.0 mi Calm Calm - N/A   Scattered Clouds
11:49 PM 53.6 °F 42.8 °F 67% 30.02 in 10.0 mi Calm Calm - N/A   Scattered Clouds